Weather History for West Palm Beach, FL

Change the Weather History Date:

Tuesday, January 14, 2014

  Actual Average Record
Temperature  
Mean Temperature 75 °F 65 °F  
Max Temperature 82 °F 74 °F 86 °F (1912)
Min Temperature 68 °F 57 °F 31 °F (1922)
Degree Days  
Heating Degree Days 0 3  
Month to date heating degree days 18 42  
Since 1 July heating degree days 22 113  
Cooling Degree Days 10 3  
Month to date cooling degree days 96 49  
Year to date cooling degree days 96 49  
Growing Degree Days 25 (Base 50)    
Moisture  
Dew Point 67 °F    
Average Humidity 78    
Maximum Humidity 93    
Minimum Humidity 62    
Precipitation  
Precipitation T in 0.10 in 3.28 in (1974)
Month to date precipitation 6.53 1.52  
Year to date precipitation 6.53 1.52  
Snow  
Snow 0.00 in - - ()
Month to date snowfall 0.0  
Since 1 July snowfall 0.0  
Snow Depth 0.00 in    
Sea Level Pressure  
Sea Level Pressure 29.98 in    
Wind  
Wind Speed 8 mph (SW)    
Max Wind Speed 20 mph    
Max Gust Speed 26 mph    
Visibility 10 miles    
Events Rain    
T = Trace of Precipitation, MM = Missing Value Source: NWS Daily Summary

Daily Weather History Graph

Daily Weather History Graph

Search for Another Location

Airport:

Trip Planner

Search our weather history database for the weather conditions in past years. The results will help you decide how hot, cold, wet, or windy it might be!

Date:

Astronomy

Jan. 14, 2014 Rise Set
Actual Time 7:10 AM EST 5:48 PM EST
Civil Twilight 6:45 AM EST 6:13 PM EST
Nautical Twilight 6:17 AM EST 6:42 PM EST
Astronomical Twilight 5:49 AM EST 7:10 PM EST
Moon 4:49 PM EST (1/14) 5:46 AM EST (1/14)
Length of Visible Light 11h 28m
Length of Day
10h 38m
Waxing Gibbous, 98% of the Moon is Illuminated
Jan 14
Waxing Gibbous
Jan 15
Full
Jan 24
Last Quarter
Jan 30
New
Feb 6
First Quarter

Hourly Weather History & Observations

Time (EST) Temp. Heat Index Dew Point Humidity Pressure Visibility Wind Dir Wind Speed Gust Speed Precip Events Conditions
12:53 AM 72.0 °F - 66.9 °F 84% 30.01 in 10.0 mi South 4.6 mph - N/A   Partly Cloudy
1:53 AM 71.1 °F - 68.0 °F 90% 29.99 in 10.0 mi South 5.8 mph - N/A   Partly Cloudy
2:53 AM 71.1 °F - 68.0 °F 90% 29.97 in 10.0 mi South 4.6 mph - N/A   Partly Cloudy
3:53 AM 69.1 °F - 66.9 °F 93% 29.96 in 10.0 mi SW 4.6 mph - N/A   Scattered Clouds
4:53 AM 69.1 °F - 66.9 °F 93% 29.97 in 10.0 mi SW 4.6 mph - N/A   Partly Cloudy
5:53 AM 69.1 °F - 66.9 °F 93% 29.97 in 10.0 mi SW 4.6 mph - N/A   Partly Cloudy
6:53 AM 69.1 °F - 66.9 °F 93% 29.98 in 9.0 mi SSW 5.8 mph - N/A   Scattered Clouds
7:53 AM 71.1 °F - 69.1 °F 93% 30.00 in 10.0 mi SSW 6.9 mph - N/A   Scattered Clouds
8:53 AM 75.0 °F - 70.0 °F 84% 30.02 in 10.0 mi SSW 9.2 mph - N/A   Scattered Clouds
9:53 AM 78.1 °F - 70.0 °F 76% 30.03 in 10.0 mi SW 11.5 mph 23.0 mph N/A   Mostly Cloudy
10:53 AM 80.1 °F 82.9 °F 69.1 °F 69% 30.02 in 10.0 mi SW 16.1 mph 23.0 mph N/A   Mostly Cloudy
11:23 AM 80.6 °F 83.9 °F 69.8 °F 70% 30.01 in 10.0 mi SW 17.3 mph 26.5 mph N/A   Mostly Cloudy
11:53 AM 80.1 °F 82.7 °F 68.0 °F 67% 30.00 in 10.0 mi SW 10.4 mph 18.4 mph N/A   Mostly Cloudy
12:22 PM 80.6 °F 83.2 °F 68.0 °F 65% 29.98 in 10.0 mi SW 10.4 mph - N/A   Mostly Cloudy
12:53 PM 81.0 °F 83.8 °F 68.0 °F 65% 29.96 in 10.0 mi SW 13.8 mph - 0.00 in Rain Light Rain
1:53 PM 81.0 °F 84.4 °F 70.0 °F 69% 29.95 in 10.0 mi SSW 6.9 mph - 0.00 in   Mostly Cloudy
2:53 PM 80.1 °F 82.3 °F 66.9 °F 64% 29.94 in 10.0 mi SSW 11.5 mph - N/A   Mostly Cloudy
3:53 PM 79.0 °F - 66.0 °F 64% 29.94 in 10.0 mi West 8.1 mph - N/A   Mostly Cloudy
4:53 PM 78.1 °F - 66.0 °F 66% 29.94 in 10.0 mi SW 6.9 mph - N/A   Mostly Cloudy
5:53 PM 77.0 °F - 64.0 °F 64% 29.95 in 10.0 mi SSW 8.1 mph - N/A   Mostly Cloudy
6:53 PM 75.9 °F - 64.9 °F 69% 29.95 in 10.0 mi SSW 6.9 mph - N/A   Mostly Cloudy
7:53 PM 73.9 °F - 64.9 °F 73% 29.97 in 10.0 mi SW 5.8 mph - N/A   Mostly Cloudy
8:53 PM 73.9 °F - 64.9 °F 73% 29.99 in 10.0 mi WNW 9.2 mph - N/A   Mostly Cloudy
9:53 PM 71.1 °F - 64.0 °F 78% 30.01 in 10.0 mi NNW 8.1 mph - N/A   Mostly Cloudy
10:53 PM 70.0 °F - 63.0 °F 78% 30.00 in 10.0 mi NW 3.5 mph - N/A   Scattered Clouds
11:53 PM 68.0 °F - 63.0 °F 84% 29.99 in 10.0 mi NW 4.6 mph - N/A   Overcast